Showing default

CHINASAT 16, 42662

Orbit data source: Space-Track

CHINASAT 16, 42662 is a payload satellite owned by CAST (CN) in GEO that was launched on Wed, 12 Apr 2017 UTC via a CHANG ZHENG 3B launch vehicle from the Xichang Space Center, China (XSC). Payload-class satellites include a variety of spacecraft equipped with specific instruments for various scientific and technological missions. These include communications satellites like Starlink; space stations such as the ISS; scientific satellites like the Hubble; Earth observation satellites from companies like Planet Labs, Umbra, and HawkEye 360; GPS; miniature CubeSats for education and research; and military/defense satellites.

Not visible in the next 10 days
Identifier
42662, 2017-018A
Orbit
GEO
Country
Flag of CNCN / PRC
Related business
Manufacturer
CAST?
Mission
Operational Civil Communications
Bus & Motor
DFH-3B, LIPS-200
Mass
4,600 kg wet, ~2,500 kg dry
Launch date (UTC)
2017-04-12 (9 years ago)
Launch vehicle
CHANG ZHENG 3B
Launch site
Xichang Space Center, China (XSC)
Object type
Payload
Rocket body
Debris
Shape & HBR
Box + 2 Pan, 15.0 m
Radar Cross Section
34.063 m², Large (>1 m²)

Expand to show TLE details & history
Last TLE update: 2 days ago

TLE from 2 days ago
0 CHINASAT 16
1 42662U 17018A   26171.17614287 -.00000357  00000-0  00000+0 0  9995
2 42662   0.1035  89.8840 0004097 134.5735 217.8376  1.00271663 33776
Epoch: 2026-06-20T04:13Z
TLE epoch observation values (Epoch: 2026-06-20T04:13:38.743Z)
Latitude
0.00583°
Longitude
110.47305°
Altitude
35,799.803 km
Speed
3.074 km/s
True Right ascension
05h 29m 06s
True Declination
0° 00' 21"
Sunlit
Object was in daylight at epoch
Visualization orbit readout
Latitude
Unknown
Longitude
Unknown
Altitude
Unknown
Speed
Unknown
Apparent Right ascension
Unknown
Apparent Declination
Unknown
Sunlit
N/A
Visualization observer readout
Local Sidereal Time
21:49:35
Azimuth
Unknown
Elevation
Unknown
Doppler factor
Unknown
Orbital elements
Apogee altitude
35,804.975 km
Perigee altitude
35,770.424 km
Semi-major axis
42,165.837 km
Eccentricity
0.00041
Inclination
0.1035°
RAAN
89.884°
Arg. of periapsis
134.5735°
True anomaly
217.80881°
Mean anomaly
217.8376°
Eccentric anomaly
217.82321°
Mean motion
0.25067 °/min
Orbital period
1,436.15 mins
BSTAR
0
Loading maneuver chart data...
Computing Atmospheric mass density...
Loading historical data...
Loading historical data...
Loading historical data...
Loading historical data...
Loading historical data...
Loading historical data...
Loading historical data...
Other satellites on launch #18 in the year 2017 (2017-04-12 UTC)

Documentation

Showing up to 5 results
|